• In Hungary
  • List of Countries
  • For 7 days
  • Water Temperature
  • Satellite Maps
  • Weather Map
  • News
  • Weather Widgets
  • user-avatar
    Login

    Hourly Weather SanFrancisco

    Today, 21 July, Saturday

    Time Temperature Precipitation Wind Pressure Humidity
    00:00 +20°C° 0 mm 2 mps 682 mmHg 92%
    01:00 +20°C° 0 mm 2 mps 682 mmHg 93%
    02:00 +19°C° 0 mm 2 mps 682 mmHg 94%
    03:00 +20°C° 0 mm 1 mps 682 mmHg 94%
    04:00 +20°C° 0 mm 1 mps 682 mmHg 95%
    05:00 +20°C° 0 mm 1 mps 682 mmHg 95%
    06:00 +21°C° 0 mm 1 mps 682 mmHg 91%
    07:00 +22°C° 0 mm 1 mps 683 mmHg 88%
    08:00 +22°C° 0 mm 1 mps 683 mmHg 84%
    09:00 +24°C° 0 mm 2 mps 684 mmHg 78%
    10:00 +25°C° 0 mm 2 mps 684 mmHg 71%
    11:00 +27°C° 0 mm 2 mps 685 mmHg 64%
    12:00 +27°C° 0.1 mm 2 mps 684 mmHg 64%
    13:00 +27°C° 0.1 mm 3 mps 684 mmHg 64%
    14:00 +28°C° 0.1 mm 3 mps 683 mmHg 64%
    15:00 +27°C° 0.1 mm 2 mps 683 mmHg 66%
    16:00 +27°C° 0.1 mm 2 mps 682 mmHg 68%
    17:00 +26°C° 0.1 mm 2 mps 682 mmHg 70%
    18:00 +25°C° 0 mm 2 mps 682 mmHg 76%
    19:00 +24°C° 0 mm 1 mps 682 mmHg 82%
    20:00 +22°C° 0 mm 1 mps 682 mmHg 88%
    21:00 +22°C° 0 mm 1 mps 682 mmHg 89%
    22:00 +21°C° 0 mm 1 mps 682 mmHg 90%
    23:00 +21°C° 0 mm 1 mps 683 mmHg 91%

    Tomorrow, 22 July, Sunday

    Time Temperature Precipitation Wind Pressure Humidity
    00:00 +21°C° 0 mm 1 mps 682 mmHg 91%
    01:00 +21°C° 0 mm 1 mps 682 mmHg 92%
    02:00 +20°C° 0 mm 1 mps 682 mmHg 92%
    03:00 +20°C° 0 mm 1 mps 682 mmHg 92%
    04:00 +20°C° 0 mm 1 mps 682 mmHg 92%
    05:00 +20°C° 0 mm 1 mps 682 mmHg 91%
    06:00 +21°C° 0 mm 1 mps 682 mmHg 88%
    07:00 +22°C° 0 mm 1 mps 683 mmHg 84%
    08:00 +23°C° 0 mm 1 mps 683 mmHg 81%
    09:00 +24°C° 0.1 mm 1 mps 684 mmHg 75%
    10:00 +26°C° 0.1 mm 2 mps 684 mmHg 70%
    11:00 +27°C° 0.1 mm 2 mps 685 mmHg 64%
    12:00 +28°C° 0.3 mm 2 mps 684 mmHg 63%
    13:00 +28°C° 0.3 mm 2 mps 684 mmHg 62%
    14:00 +29°C° 0.3 mm 2 mps 683 mmHg 61%
    15:00 +28°C° 0.9 mm 2 mps 683 mmHg 67%
    16:00 +27°C° 0.9 mm 2 mps 682 mmHg 74%
    17:00 +25°C° 0.9 mm 2 mps 681 mmHg 81%
    18:00 +24°C° 0.7 mm 2 mps 681 mmHg 85%
    19:00 +23°C° 0.7 mm 1 mps 681 mmHg 89%
    20:00 +22°C° 0.7 mm 1 mps 682 mmHg 93%
    21:00 +21°C° 0 mm 1 mps 682 mmHg 94%
    22:00 +21°C° 0 mm 1 mps 682 mmHg 94%
    23:00 +21°C° 0 mm 1 mps 683 mmHg 95%

    Day after tomorrow, 23 July, Monday

    Time Temperature Precipitation Wind Pressure Humidity
    00:00 +20°C° 0 mm 1 mps 682 mmHg 95%
    01:00 +20°C° 0 mm 1 mps 682 mmHg 95%
    02:00 +20°C° 0 mm 1 mps 681 mmHg 95%
    03:00 +20°C° 0 mm 1 mps 681 mmHg 94%
    04:00 +20°C° 0 mm 1 mps 681 mmHg 94%
    05:00 +19°C° 0 mm 1 mps 681 mmHg 93%
    06:00 +20°C° 0.1 mm 1 mps 682 mmHg 90%
    07:00 +21°C° 0.1 mm 1 mps 683 mmHg 87%
    08:00 +22°C° 0.1 mm 1 mps 683 mmHg 84%
    09:00 +23°C° 0.2 mm 1 mps 684 mmHg 81%
    10:00 +24°C° 0.2 mm 2 mps 684 mmHg 79%
    11:00 +25°C° 0.2 mm 2 mps 684 mmHg 76%
    12:00 +25°C° 0.7 mm 2 mps 684 mmHg 77%
    13:00 +25°C° 0.7 mm 2 mps 683 mmHg 78%
    14:00 +26°C° 0.7 mm 2 mps 683 mmHg 79%
    15:00 +26°C° 0.8 mm 2 mps 682 mmHg 79%
    16:00 +26°C° 0.8 mm 2 mps 682 mmHg 79%
    17:00 +25°C° 0.8 mm 2 mps 682 mmHg 79%
    18:00 +24°C° 0.3 mm 2 mps 682 mmHg 84%
    19:00 +23°C° 0.3 mm 2 mps 682 mmHg 88%
    20:00 +22°C° 0.3 mm 1 mps 682 mmHg 93%
    21:00 +21°C° 0 mm 1 mps 683 mmHg 94%
    22:00 +21°C° 0 mm 1 mps 683 mmHg 94%
    23:00 +21°C° 0 mm 1 mps 683 mmHg 94%

    24 July, Tuesday

    Time Temperature Precipitation Wind Pressure Humidity
    00:00 +20°C° 0 mm 1 mps 683 mmHg 94%
    01:00 +20°C° 0 mm 1 mps 683 mmHg 94%
    02:00 +20°C° 0 mm 1 mps 682 mmHg 93%
    03:00 +20°C° 0 mm 1 mps 682 mmHg 93%
    04:00 +20°C° 0 mm 1 mps 682 mmHg 92%
    05:00 +20°C° 0 mm 1 mps 682 mmHg 91%
    06:00 +21°C° 0 mm 1 mps 683 mmHg 88%
    07:00 +22°C° 0 mm 1 mps 684 mmHg 85%
    08:00 +23°C° 0 mm 1 mps 684 mmHg 82%
    09:00 +24°C° 0.3 mm 1 mps 685 mmHg 80%
    10:00 +25°C° 0.3 mm 2 mps 685 mmHg 78%
    11:00 +26°C° 0.3 mm 2 mps 685 mmHg 75%
    12:00 +26°C° 1.3 mm 2 mps 685 mmHg 79%
    13:00 +26°C° 1.3 mm 2 mps 684 mmHg 82%
    14:00 +25°C° 1.3 mm 2 mps 684 mmHg 86%
    15:00 +25°C° 1.4 mm 1 mps 683 mmHg 86%
    16:00 +25°C° 1.4 mm 1 mps 683 mmHg 87%
    17:00 +25°C° 1.4 mm 1 mps 683 mmHg 87%
    18:00 +24°C° 1.2 mm 1 mps 683 mmHg 90%
    19:00 +22°C° 1.2 mm 1 mps 683 mmHg 93%
    20:00 +19°C° 1.2 mm 0 mps 683 mmHg 95%
    21:00 +21°C° 0.2 mm 1 mps 683 mmHg 95%
    22:00 +21°C° 0.2 mm 1 mps 684 mmHg 95%
    23:00 +20°C° 0.2 mm 1 mps 684 mmHg 95%

    25 July, Wednesday

    Time Temperature Precipitation Wind Pressure Humidity
    00:00 +20°C° 0.2 mm 1 mps 684 mmHg 95%
    01:00 +20°C° 0.2 mm 1 mps 683 mmHg 95%
    02:00 +20°C° 0.2 mm 1 mps 683 mmHg 94%
    03:00 +19°C° 0.5 mm 1 mps 683 mmHg 94%
    04:00 +19°C° 0.5 mm 1 mps 683 mmHg 94%
    05:00 +19°C° 0.5 mm 1 mps 683 mmHg 93%
    06:00 +20°C° 0.3 mm 1 mps 684 mmHg 91%
    07:00 +21°C° 0.3 mm 1 mps 684 mmHg 90%
    08:00 +22°C° 0.3 mm 1 mps 685 mmHg 88%
    09:00 +23°C° 0.4 mm 1 mps 685 mmHg 83%
    10:00 +25°C° 0.4 mm 1 mps 685 mmHg 79%
    11:00 +26°C° 0.4 mm 2 mps 685 mmHg 75%
    12:00 +26°C° 1.3 mm 2 mps 685 mmHg 77%
    13:00 +26°C° 1.3 mm 2 mps 684 mmHg 79%
    14:00 +26°C° 1.3 mm 2 mps 684 mmHg 81%
    15:00 +25°C° 1.7 mm 2 mps 683 mmHg 83%
    16:00 +25°C° 1.7 mm 2 mps 683 mmHg 85%
    17:00 +25°C° 1.7 mm 2 mps 682 mmHg 87%
    18:00 +24°C° 1.6 mm 1 mps 683 mmHg 90%
    19:00 +22°C° 1.6 mm 1 mps 683 mmHg 92%
    20:00 +21°C° 1.6 mm 1 mps 683 mmHg 95%
    21:00 +21°C° 0.7 mm 1 mps 683 mmHg 95%
    22:00 +21°C° 0.7 mm 1 mps 684 mmHg 96%
    23:00 +20°C° 0.7 mm 1 mps 684 mmHg 96%

    26 July, Thursday

    Time Temperature Precipitation Wind Pressure Humidity
    00:00 +20°C° 0.2 mm 1 mps 683 mmHg 96%
    01:00 +20°C° 0.2 mm 1 mps 683 mmHg 96%
    02:00 +19°C° 0.2 mm 1 mps 683 mmHg 96%
    03:00 +19°C° 0.1 mm 1 mps 683 mmHg 96%
    04:00 +19°C° 0.1 mm 1 mps 683 mmHg 96%
    05:00 +19°C° 0.1 mm 1 mps 683 mmHg 95%
    06:00 +20°C° 0.1 mm 1 mps 683 mmHg 94%
    07:00 +20°C° 0.1 mm 1 mps 684 mmHg 92%
    08:00 +21°C° 0.1 mm 1 mps 684 mmHg 90%
    09:00 +22°C° 0.3 mm 1 mps 685 mmHg 86%
    10:00 +24°C° 0.3 mm 1 mps 685 mmHg 82%
    11:00 +25°C° 0.3 mm 1 mps 685 mmHg 78%
    12:00 +25°C° 1.7 mm 1 mps 684 mmHg 80%
    13:00 +25°C° 1.7 mm 1 mps 684 mmHg 82%
    14:00 +25°C° 1.7 mm 1 mps 683 mmHg 85%
    15:00 +25°C° 2.2 mm 1 mps 683 mmHg 85%
    16:00 +25°C° 2.2 mm 1 mps 682 mmHg 84%
    17:00 +25°C° 2.2 mm 1 mps 682 mmHg 84%
    18:00 +24°C° 1.2 mm 1 mps 682 mmHg 88%
    19:00 +22°C° 1.2 mm 1 mps 682 mmHg 91%
    20:00 +21°C° 1.2 mm 1 mps 683 mmHg 94%
    21:00 +21°C° 0.1 mm 1 mps 683 mmHg 94%
    22:00 +21°C° 0.1 mm 1 mps 683 mmHg 94%
    23:00 +20°C° 0.1 mm 1 mps 683 mmHg 95%
    Show more